Killeen/Ft Hood, TX

11:59 PM CST on February 20, 2018 (GMT -0600)
Hood Army Air Field

Weather History for KHLR - July, 2013

Change the Weather History Date:

Tuesday, July 23, 2013

  Actual Average Record
Temperature  
Mean Temperature 88 °F -  
Max Temperature 97 °F 94 °F 104 °F (1998)
Min Temperature 78 °F 74 °F 73 °F (2003)
Cooling Degree Days 22    
Growing Degree Days 38 (Base 50)    
Moisture  
Dew Point 70 °F    
Average Humidity 61    
Maximum Humidity 83    
Minimum Humidity 31    
Precipitation  
Precipitation 0.00 in - - ()
Sea Level Pressure  
Sea Level Pressure 30.00 in    
Wind  
Wind Speed 9 mph (SSE)    
Max Wind Speed 15 mph    
Max Gust Speed 23 mph    
Visibility 10 miles    
Events      
Averages and records for this station are not official NWS values.
T = Trace of Precipitation, MM = Missing Value Source: NWS Daily Summary

Daily Weather History Graph

Daily Weather History Graph

Search for Another Location

Airport or City:

Trip Planner

Search our weather history database for the weather conditions in past years. The results will help you decide how hot, cold, wet, or windy it might be!

Date:

Astronomy

Jul. 23, 2013 Rise Set
Actual Time 6:42 AM CDT 8:32 PM CDT
Civil Twilight 6:15 AM CDT 8:58 PM CDT
Nautical Twilight 5:43 AM CDT 9:31 PM CDT
Astronomical Twilight 5:08 AM CDT 10:05 PM CDT
Moon 9:11 PM CDT (7/23) 7:44 AM CDT (7/23)
Length of Visible Light 14h 43m
Length of Day
13h 49m
Full, 99% of the Moon is Illuminated
Jul 23
Full
Jul 29
Last Quarter
Aug 6
New
Aug 14
First Quarter
Aug 20
Full

Hourly Weather History & Observations

Time (CDT) Temp. Heat Index Dew Point Humidity Pressure Visibility Wind Dir Wind Speed Gust Speed Precip Events Conditions
12:56 AM 82.0 °F 86.7 °F 72.0 °F 71% 30.04 in 10.0 mi SE 9.2 mph - N/A   Clear
1:56 AM 82.0 °F 87.4 °F 73.0 °F 74% 30.03 in 10.0 mi SSE 9.2 mph - N/A   Clear
2:56 AM 81.0 °F 86.2 °F 73.9 °F 79% 30.03 in 10.0 mi SSE 10.4 mph - N/A   Clear
3:29 AM 80.6 °F 85.4 °F 73.4 °F 79% 29.98 in 10.0 mi SSE 8.1 mph - N/A   Mostly Cloudy
3:56 AM 80.1 °F 84.2 °F 73.0 °F 79% 30.04 in 10.0 mi SSE 8.1 mph - N/A   Overcast
4:20 AM 80.6 °F 85.4 °F 73.4 °F 79% 29.99 in 10.0 mi SSE 6.9 mph - N/A   Scattered Clouds
4:42 AM 80.6 °F 85.4 °F 73.4 °F 79% 29.99 in 10.0 mi SSE 6.9 mph - N/A   Mostly Cloudy
4:56 AM 80.1 °F 84.2 °F 73.0 °F 79% 30.05 in 10.0 mi South 8.1 mph - N/A   Overcast
5:46 AM 78.8 °F - 73.4 °F 83% 29.99 in 10.0 mi SSE 10.4 mph - N/A   Scattered Clouds
5:56 AM 79.0 °F - 73.0 °F 82% 30.05 in 10.0 mi SSE 6.9 mph - N/A   Clear
6:56 AM 79.0 °F - 72.0 °F 79% 30.00 in 10.0 mi SSE 6.9 mph - N/A   Clear
7:56 AM 80.1 °F 84.2 °F 73.0 °F 79% 30.00 in 10.0 mi SSE 8.1 mph - N/A   Clear
8:56 AM 82.0 °F 86.7 °F 72.0 °F 71% 30.02 in 10.0 mi South 11.5 mph - N/A   Scattered Clouds
9:03 AM 82.4 °F 87.2 °F 71.6 °F 70% 30.02 in 10.0 mi South 12.7 mph - N/A   Mostly Cloudy
9:56 AM 84.0 °F 89.6 °F 72.0 °F 67% 30.02 in 10.0 mi SSW 15.0 mph - N/A   Overcast
10:56 AM 87.1 °F 93.6 °F 72.0 °F 61% 30.01 in 10.0 mi South 11.5 mph - N/A   Mostly Cloudy
11:08 AM 87.8 °F 93.8 °F 71.6 °F 58% 30.02 in 10.0 mi South 12.7 mph - N/A   Scattered Clouds
11:56 AM 90.0 °F 97.9 °F 73.0 °F 57% 30.01 in 10.0 mi SSE 9.2 mph - N/A   Clear
12:56 PM 91.0 °F 97.6 °F 71.1 °F 52% 30.01 in 10.0 mi SSE 13.8 mph 18.4 mph N/A   Clear
1:56 PM 93.9 °F 98.6 °F 68.0 °F 43% 29.99 in 10.0 mi South 11.5 mph 21.9 mph N/A   Clear
2:56 PM 95.0 °F 99.5 °F 68.0 °F 41% 29.97 in 10.0 mi SSE 10.4 mph - N/A   Clear
3:56 PM 96.1 °F 99.3 °F 66.0 °F 37% 29.95 in 10.0 mi SSE 8.1 mph 19.6 mph N/A   Clear
4:56 PM 97.0 °F 99.3 °F 64.0 °F 34% 29.98 in 10.0 mi South 12.7 mph 20.7 mph N/A   Clear
5:56 PM 97.0 °F 97.8 °F 62.1 °F 31% 29.96 in 10.0 mi South 12.7 mph 23.0 mph N/A   Clear
6:56 PM 96.1 °F 97.3 °F 63.0 °F 33% 29.96 in 10.0 mi South 6.9 mph 17.3 mph N/A   Clear
7:56 PM 93.0 °F 94.6 °F 64.0 °F 38% 29.93 in 10.0 mi South 10.4 mph - N/A   Clear
8:56 PM 89.1 °F 91.0 °F 64.9 °F 45% 29.95 in 10.0 mi SSE 4.6 mph - N/A   Clear
9:56 PM 87.1 °F 89.2 °F 66.0 °F 49% 29.96 in 10.0 mi SE 6.9 mph - N/A   Clear
10:56 PM 86.0 °F 87.6 °F 64.9 °F 49% 29.97 in 10.0 mi SE 8.1 mph - N/A   Clear
11:56 PM 84.9 °F 87.6 °F 66.9 °F 55% 29.98 in 10.0 mi SE 6.9 mph - N/A   Clear